Regional Weather Roundup
Issued by NWS

Home | Current Version | Previous Version | Graphics & Text | Print | Product List | Glossary On
Versions: 1 2 3 4 5 6 7 8 9 10 11 12 13 14 15 16 17 18 19 20 21 22 23 24 25 26 27 28 29 30 31 32 33 34 35 36 37 38 39 40 41 42 43 44 45 46 47 48 49
000
ASUS43 KDMX 272307
RWRIA

WEATHER ROUNDUP FOR IOWA
NATIONAL WEATHER SERVICE DES MOINES IA
600 PM CDT THU AUG 27 2015

NOTE: "FAIR" INDICATES FEW OR NO CLOUDS BELOW 12,000 FEET WITH NO
SIGNIFICANT WEATHER AND/OR OBSTRUCTIONS TO VISIBILITY.

* - THESE STATIONS ARE NOT NWS STATIONS...THUS NOT UNDER NWS
QUALITY CONTROL.  THEY ALSO DO NOT REPORT WEATHER SUCH
AS PRECIPITATION OR FOG.

IAZ001>003-012>014-020>022-031>034-043>046-280000-
   NORTHWEST IOWA

CITY           SKY/WX    TMP DP  RH WIND       PRES   REMARKS
CARROLL *      SUNNY     77  68  73 E10       29.97F
CHEROKEE *     SUNNY     77  68  73 E7        29.96F
DENISON *      SUNNY     77  70  78 SE5       29.93F
LE MARS *      MOSUNNY   79  70  73 SE8G15    29.94R HX  81
ORANGE CITY *  SUNNY     75  68  78 E10       29.96S
SHELDON *      CLOUDY    73  66  78 E9        29.98R
SIOUX CITY     CLOUDY    78  67  68 SE10      29.90F HX  80
SPENCER        SUNNY     71  62  73 E12       30.01S HAZE
STORM LAKE *   SUNNY     75  66  73 E9        29.99S
$$

IAZ055>058-069>071-079>083-090>094-280000-
   SOUTHWEST IOWA

CITY           SKY/WX    TMP DP  RH WIND       PRES   REMARKS
ATLANTIC *     SUNNY     79  68  69 S8        29.95F HX  81
AUDUBON *      SUNNY     77  70  78 E7        29.98S
CLARINDA *     SUNNY     77  68  73 SE13G22   29.97F
COUNCIL BLFS * SUNNY     79  70  73 SE9       29.93F HX  81
CRESTON *      SUNNY     73  66  78 SE13      30.01F
HARLAN  *      SUNNY     79  75  89 SE8       29.97F HX  82
LAMONI         PTSUNNY   74  62  66 S9G17     30.02F
RED OAK *      SUNNY     81  70  69 SE13G18   29.94F HX  84
SHENANDOAH *   SUNNY     81  70  69 S12       29.94F HX  84
$$

IAZ047>049-059>061-072>074-084-280000-
   CENTRAL IOWA

CITY           SKY/WX    TMP DP  RH WIND       PRES   REMARKS
AMES           CLOUDY    71  61  70 E6        30.03F
ANKENY *       SUNNY     72  63  73 MISG      30.02F
CHARITON *     SUNNY     73  63  68 SE14      30.03F
DES MOINES     PTSUNNY   74  60  61 SE14      30.02F
GRINNELL*      CLOUDY    70  61  73 SE9       30.06S
KNOXVILLE *    MOSUNNY   72  61  68 S8G15     30.04R
MARSHALLTOWN   CLOUDY    69  62  78 E6        30.06S
PELLA *        PTSUNNY   73  64  73 SE7       30.06R
PERRY *          N/A     73  64  73 SE13      30.00F
$$

IAZ004>006-015-016-023>025-035-036-280000-
   NORTH CENTRAL IOWA

CITY           SKY/WX    TMP DP  RH WIND       PRES   REMARKS
ALGONA *       SUNNY     70  61  73 E9        30.03F
CLARION *      SUNNY     70  61  73 E10       30.04F
ESTHERVILLE    MOSUNNY   69  61  75 E8        30.03F
FORT DODGE *   PTSUNNY   72  61  68 E12       30.02F
MASON CITY     CLOUDY    67  61  81 S12       30.06F
FOREST CITY *  SUNNY     64  59  82 NE5       30.07S
IOWA FALLS *     N/A     70  63  78 E6        30.07F
$$

IAZ007>011-017>019-026>030-037>042-050>054-066-280000-
   NORTHEAST IOWA

CITY           SKY/WX    TMP DP  RH WIND       PRES   REMARKS
CEDAR RAPIDS   CLOUDY    70  62  76 SW6       30.10R
CHARLES CITY * SUNNY     68  63  83 SE3       30.09F
CLINTON *      MOSUNNY   72  59  64 S7        30.13S
DECORAH *      MOSUNNY   70  59  68 VRB3      30.11R
DUBUQUE        CLOUDY    69  59  70 S8        30.10F
MONTICELLO *   SUNNY     72  59  64 SE6G14    30.07F
OELWEIN *        N/A     70  61  73 SW5       30.14R
WATERLOO       CLOUDY    70  59  68 S6        30.10R
$$

IAZ064-065-067-068-078-280000-
   EAST CENTRAL IOWA

CITY           SKY/WX    TMP DP  RH WIND       PRES   REMARKS
DAVENPORT      MOSUNNY   71  59  65 S5        30.10R
IOWA CITY      CLOUDY    72  60  66 S6        30.08F
MT. PLEASANT * CLOUDY    73  57  56 CALM      30.10R
MUSCATINE *    SUNNY     73  59  60 SE6       30.09F
QUAD CITIES    SUNNY     73  58  59 S6        30.09R
$$

IAZ062-063-075>077-085>089-095>099-280000-
   SOUTHEAST IOWA

CITY           SKY/WX    TMP DP  RH WIND       PRES   REMARKS
BURLINGTON     PTSUNNY   73  61  65 SE5       30.09R
FAIRFIELD *    SUNNY     73  61  64 SE7       30.07F
FORT MADISON * SUNNY     72  61  68 SE3       30.10R
KEOKUK *       SUNNY     73  59  60 SE7       30.07R
OSKALOOSA *      N/A     73  61  64 SE10      30.06F
CENTERVILLE *  SUNNY     72  64  78 SE6       30.08S
OTTUMWA        CLOUDY    73  61  65 SE14      30.04F
WASHINGTON *     N/A    N/A N/A N/A MISG        N/A
$$

ABBREVIATIONS USED IN REMARKS
   TC - TEMPERATURES IN CELSIUS
  WCI - WIND CHILL INDEX
   HX - HEAT INDEX
  VSB - VISIBILITY
$$



USA.gov is the U.S. government's official web portal to all federal, state and local government web resources and services.